Wind_Speed
24 25 25 26 26 26 27 26 26 25 24 24 21 19 19 21 22 10 11 9 10 14 10 9 16 19 19 18 19 20 15 9 6 15 24 14 9 9 9 14 7 3 15 24 32
24 25 26 27 27 27 27 28 26 26 25 22 20 17 18 20 18 21 20 17 11 10 13 16 15 17 14 18 15 15 15 15 22 24 15 21 9 9 8 17 14 10 18 29 35
25 26 26 27 27 29 28 28 27 27 23 21 20 17 15 14 11 2 9 11 12 11 17 20 18 14 18 18 20 22 17 20 20 39 17 14 10 8 13 6 26 17 10 22 23
27 27 26 27 29 29 29 29 30 24 22 21 17 13 10 4 5 6 7 3 6 13 16 21 16 17 17 18 21 21 22 20 18 20 22 20 16 12 12 14 15 29 31 23 21
29 27 26 28 31 31 30 34 26 23 22 19 12 8 3 8 13 7 3 4 7 14 17 17 16 16 18 17 20 22 21 20 19 19 19 19 19 16 14 12 4 31 32 24 20
30 29 29 31 32 31 33 30 26 26 18 10 5 5 5 12 1 6 6 7 9 15 17 18 15 15 20 19 21 21 23 23 22 22 21 21 22 19 18 15 4 9 22 21 19
30 29 30 31 31 31 31 25 26 16 7 4 6 4 11 15 3 5 8 9 15 17 16 16 17 17 18 18 20 22 23 20 20 21 22 21 21 22 21 18 14 14 11 18 18
30 29 29 30 30 35 26 24 16 8 3 3 5 6 7 0 7 8 11 13 12 18 17 20 17 17 19 19 20 23 25 21 22 23 23 20 19 20 20 17 12 5 15 15 19
30 29 30 32 32 28 25 21 10 5 3 4 3 9 8 1 6 7 11 12 11 13 12 12 13 15 16 16 18 19 21 24 24 22 22 20 19 17 15 14 10 25 13 14 17
31 31 32 33 35 24 25 16 10 6 6 7 13 9 9 2 1 4 5 9 11 14 15 13 12 13 15 15 16 20 20 21 23 21 23 18 19 18 13 19 19 11 11 11 13
32 32 33 33 30 19 29 8 3 5 14 12 4 10 1 4 4 8 8 7 8 9 13 14 12 14 18 20 22 23 25 26 23 22 23 24 24 19 17 15 17 16 13 14 15
32 32 34 33 22 15 13 9 9 7 10 16 8 8 7 4 5 7 6 7 12 11 13 13 16 21 21 17 18 20 23 24 25 22 21 22 24 24 22 20 18 20 17 15 16
31 31 34 35 14 10 6 9 9 11 6 11 11 8 2 6 9 7 9 12 11 13 14 15 17 16 16 13 17 19 17 20 21 20 21 22 25 22 24 22 20 23 20 15 17
32 31 33 34 7 14 5 12 12 8 5 9 8 7 6 7 9 6 5 7 11 13 11 10 14 10 11 15 16 20 18 18 18 18 18 19 18 16 19 20 22 23 24 23 19
31 30 32 13 13 8 12 13 12 6 5 7 10 6 3 6 6 12 1 7 13 14 13 15 17 14 14 14 14 18 17 17 18 19 20 22 14 14 16 15 15 24 26 17 18
31 29 30 4 8 9 14 14 9 5 3 6 2 6 13 14 10 4 9 10 12 13 14 17 16 16 15 8 13 13 15 15 18 17 14 17 3 9 12 14 15 18 19 29 18
33 29 24 13 6 14 14 9 6 6 3 4 0 3 8 8 9 8 9 10 6 6 13 16 14 12 2 10 13 14 14 12 13 12 13 12 7 11 11 16 8 11 22 27 20
36 27 14 12 10 13 13 8 6 9 3 6 8 10 13 14 4 13 6 13 8 5 11 11 4 10 5 9 10 14 13 8 17 14 18 17 9 10 12 4 9 13 21 20 17
37 16 8 9 7 7 7 7 7 11 7 9 13 13 15 7 4 7 11 13 5 8 6 10 15 21 15 21 7 16 15 18 13 17 15 10 10 17 11 5 2 14 20 20 29
24 17 18 9 5 8 6 10 15 5 8 11 12 7 12 8 3 11 4 2 2 2 7 12 17 18 20 19 15 19 14 15 12 14 17 8 9 5 10 14 12 15 15 16 26
8 6 10 7 5 6 9 14 13 5 2 7 11 11 11 10 9 10 9 6 7 5 10 15 15 15 14 15 15 10 11 10 7 8 9 15 6 12 20 21 24 23 24 23 18
10 6 9 6 7 8 11 15 5 7 6 7 8 11 13 12 8 12 12 2 8 5 10 13 12 13 18 21 21 11 5 8 3 6 9 10 8 14 15 19 13 16 19 11 19
5 10 11 5 6 10 14 18 6 11 13 10 9 8 9 7 7 9 9 9 8 6 6 7 7 12 13 16 8 9 18 2 7 7 9 9 14 5 8 11 11 10 13 19 18
5 5 7 7 10 14 15 14 12 11 10 13 12 13 12 9 13 11 14 10 8 8 7 5 13 16 13 18 21 19 19 15 11 11 13 15 14 9 15 19 11 13 13 3 4
4 5 10 7 9 12 11 13 15 15 11 8 10 12 14 13 14 12 15 15 13 11 7 10 14 15 18 21 21 22 23 25 20 22 19 20 4 7 3 6 8 16 25 3 5
5 7 10 12 14 14 12 15 16 16 16 13 9 14 14 10 8 14 15 12 11 15 14 14 14 15 20 21 22 24 24 21 22 23 21 12 15 7 3 5 6 10 16 3 6
14 11 7 9 13 13 11 13 15 12 13 15 11 14 12 7 11 14 14 14 16 18 17 15 12 13 18 20 20 18 21 18 13 18 10 11 8 12 8 5 6 3 5 7 6
Wind_Direction
353 351 352 351 350 347 342 338 336 333 332 329 327 322 321 315 311 304 263 262 209 243 201 212 218 238 247 258 259 261 273 78 343 326 336 327 13 57 148 141 134 105 127 149 148
348 346 346 347 346 342 338 337 332 332 328 325 324 320 315 314 305 271 250 242 236 239 203 199 214 227 246 264 261 257 272 170 162 241 285 295 31 317 323 139 139 119 122 146 153
345 345 343 342 341 339 335 332 329 328 324 321 320 316 309 316 281 222 187 219 231 232 215 215 235 228 252 265 271 276 268 295 198 201 232 325 332 352 321 2 120 138 272 159 164
344 342 340 338 338 336 334 331 327 325 320 317 315 311 302 289 289 108 114 134 205 200 221 237 240 251 253 268 273 273 277 274 293 305 313 316 314 320 294 320 130 138 242 163 171
347 345 341 338 338 336 334 330 327 321 316 311 308 301 289 228 258 152 181 169 181 190 219 236 236 247 263 269 278 284 289 296 296 296 296 296 294 299 287 292 23 160 199 161 172
348 346 341 339 337 335 331 329 326 320 315 307 293 278 237 253 149 140 164 176 190 202 229 245 246 254 269 280 283 298 302 299 297 294 293 291 290 284 281 269 262 138 151 161 172
347 347 342 340 337 334 328 327 323 323 328 307 286 218 250 243 219 273 228 217 227 210 245 246 259 265 277 269 281 280 280 289 284 280 273 265 264 259 263 264 262 158 178 161 173
347 344 341 340 337 333 329 328 326 323 312 303 294 197 254 355 284 261 248 214 221 237 244 266 269 267 274 286 288 283 282 281 277 274 274 274 257 262 255 251 251 326 172 175 178
346 344 342 343 339 336 329 331 310 297 271 275 230 219 253 176 213 226 227 250 243 219 260 273 283 270 279 269 271 264 265 267 272 269 271 277 277 259 255 257 194 219 188 185 186
346 344 342 343 341 337 333 324 281 278 268 246 264 249 248 243 22 272 241 241 243 247 236 235 244 257 253 250 261 276 282 290 296 302 304 279 263 267 247 265 268 247 217 217 223
345 344 343 342 341 339 334 338 259 192 232 278 269 263 190 299 245 213 223 198 254 251 256 221 233 242 245 254 261 268 273 275 276 285 286 292 296 294 291 256 247 255 251 222 245
345 343 341 339 335 334 334 21 35 331 298 292 250 254 249 292 259 200 179 225 201 241 244 240 247 245 252 260 270 281 281 282 283 278 281 278 277 282 280 268 262 263 265 260 265
345 342 340 337 322 321 355 17 340 332 264 256 212 260 242 223 271 158 186 238 257 266 251 256 272 290 284 276 277 274 274 289 289 289 276 280 278 274 271 266 262 270 266 254 246
343 342 340 338 318 333 41 352 341 339 278 159 202 229 212 234 249 221 265 283 279 263 294 298 289 299 305 285 277 279 282 282 294 299 291 297 291 272 269 262 250 242 241 239 237
340 340 336 334 308 335 338 329 329 276 291 176 136 106 274 245 343 187 160 275 261 285 296 278 302 300 288 296 308 299 304 302 295 286 284 281 273 283 328 306 322 335 316 221 248
337 337 333 3 277 291 325 319 291 238 241 145 174 217 216 212 218 255 199 212 266 282 271 262 259 255 252 278 293 301 295 286 268 259 260 269 311 304 298 288 331 308 314 290 246
332 329 316 291 295 331 324 290 258 249 158 132 242 269 276 286 232 209 290 246 267 267 301 324 264 247 322 304 279 252 263 272 285 292 293 347 279 299 235 267 298 285 291 303 278
328 323 307 258 280 302 306 273 263 298 309 87 294 277 275 275 251 253 259 269 183 213 315 310 349 26 21 280 281 298 306 290 291 304 310 317 308 310 332 164 240 264 301 284 308
330 323 255 265 236 286 279 253 274 354 17 344 317 266 270 176 240 296 250 269 352 34 329 317 303 329 307 292 259 279 268 277 288 281 286 331 340 303 330 291 194 290 301 333 352
327 301 258 176 224 258 263 257 299 321 340 302 287 290 304 313 200 287 270 32 1 125 336 310 298 299 300 287 264 259 285 290 285 299 289 268 256 266 5 2 319 333 353 354 349
297 275 128 173 209 246 252 272 307 359 345 295 290 302 282 289 311 299 299 312 71 2 335 300 291 308 308 280 305 322 273 308 337 327 307 312 21 39 15 5 58 42 19 16 43
286 274 135 200 253 244 254 252 340 287 245 260 273 280 287 297 301 287 284 314 95 358 303 314 318 300 297 294 293 325 42 359 299 285 306 302 293 34 32 17 353 98 72 288 230
280 284 261 221 259 254 268 251 242 271 267 265 255 255 287 287 290 270 288 332 354 330 5 350 318 312 300 283 64 337 304 209 239 260 285 301 274 41 63 20 343 302 179 210 254
280 288 204 199 252 278 290 291 293 227 251 296 297 297 297 273 274 264 267 262 289 275 134 307 276 268 275 295 313 307 295 270 270 271 279 243 252 27 16 346 346 324 285 295 39
249 269 352 296 300 338 321 306 299 297 197 234 275 256 265 276 288 296 291 288 290 147 316 302 288 281 288 295 302 297 290 285 267 246 248 267 317 115 169 272 295 13 329 351 93
293 341 339 305 297 281 275 271 277 278 276 275 235 258 286 293 279 288 299 309 312 319 307 291 290 298 290 285 283 281 287 278 280 281 291 359 71 231 266 229 256 192 234 27 75
296 324 279 284 287 285 268 275 276 262 280 283 298 291 298 337 356 324 311 298 285 277 275 274 277 288 284 290 291 283 277 285 327 327 350 329 12 99 281 257 283 350 342 64 79
Height
806 803 800 797 793 790 786 783 779 776 774 770 768 765 763 759 756 754 749 742 741 742 743 743 743 738 732 729 721 715 743 805 801 763 748 692 688 673 669 684 686 692 700 707 718
806 802 799 795 791 788 784 780 777 774 771 768 766 763 760 757 753 747 740 737 738 740 742 739 738 733 731 725 717 722 733 775 750 772 767 699 686 683 681 685 694 700 702 711 714
805 801 797 794 790 786 782 777 774 771 767 765 763 761 759 757 750 728 733 734 736 737 738 734 730 728 733 720 716 712 727 706 731 737 701 689 689 678 685 694 695 743 723 716 717
804 800 796 792 788 783 779 775 771 767 764 761 760 758 757 758 757 731 733 734 735 737 739 731 728 731 734 734 711 721 705 702 699 693 695 696 684 687 685 682 685 697 720 712 716
802 798 794 789 784 779 775 771 766 763 760 758 757 756 756 752 736 732 733 733 735 737 736 728 731 730 738 724 715 716 704 696 693 692 691 687 692 688 685 672 667 687 705 703 710
801 796 791 786 781 776 771 766 762 759 756 755 755 755 755 754 728 730 733 734 734 736 732 727 726 721 725 723 724 710 707 703 698 698 694 699 694 686 680 668 668 674 686 693 703
800 795 789 784 779 773 767 762 759 755 754 753 753 753 749 736 727 729 730 732 732 732 729 724 722 723 720 727 712 712 721 707 701 695 695 685 701 697 676 668 670 673 678 684 695
800 795 789 784 778 771 764 759 755 754 753 752 751 754 738 728 726 727 728 726 729 728 727 724 721 720 723 717 722 731 725 736 707 695 685 684 714 682 667 669 673 675 676 679 686
799 794 788 782 775 767 760 757 753 752 751 751 752 749 731 727 726 723 725 724 723 725 725 725 725 729 728 740 744 733 746 732 715 686 684 686 698 671 661 665 673 675 671 674 677
798 792 786 779 773 765 757 752 751 751 750 753 749 748 727 722 721 723 722 723 722 721 722 726 731 740 738 744 765 746 733 717 715 692 683 688 689 671 666 668 667 666 667 669 672
797 791 785 779 772 766 757 751 749 749 747 736 731 727 720 721 721 721 721 722 721 724 738 725 743 750 737 726 721 721 724 723 708 692 698 697 689 678 665 664 667 664 664 665 666
797 791 785 778 772 767 763 756 763 763 755 729 724 724 720 721 722 715 719 726 726 740 726 734 741 718 708 708 715 718 724 721 701 690 695 697 696 679 669 667 664 664 662 661 661
798 792 785 776 770 767 763 765 764 760 757 725 719 717 716 719 719 713 714 714 722 728 723 730 716 698 703 709 717 714 719 715 713 697 690 697 699 688 671 662 659 656 653 653 657
797 792 785 774 773 767 763 765 763 761 761 731 726 718 717 714 721 707 708 715 720 726 716 718 700 704 710 717 711 724 695 700 704 710 726 692 719 688 675 668 659 653 649 646 646
797 791 785 782 778 768 769 765 763 760 775 726 719 712 709 720 711 711 709 713 728 722 716 721 711 711 716 712 702 715 696 702 704 711 710 705 713 691 677 681 670 664 650 637 635
795 791 785 782 778 771 768 765 762 772 770 732 715 720 721 713 711 708 710 709 707 718 711 711 692 697 700 696 700 695 704 704 700 701 724 695 712 710 701 694 682 672 655 644 631
792 788 784 783 770 771 768 762 770 768 721 729 725 717 717 718 712 712 720 719 727 742 730 708 697 680 686 708 695 698 711 734 733 722 719 685 703 696 680 673 676 674 664 648 629
790 783 779 776 774 773 768 767 782 728 728 715 726 721 731 716 715 715 723 727 708 721 732 732 732 700 688 702 711 709 711 734 755 739 720 686 721 698 668 663 661 661 662 654 628
788 780 776 770 772 772 768 774 751 735 729 735 732 734 726 716 727 721 723 721 710 717 747 745 735 698 693 686 690 705 715 688 711 705 712 700 698 679 666 666 669 662 661 678 670
792 780 766 765 769 769 770 770 744 726 732 735 749 730 741 722 729 725 722 709 718 714 716 732 749 713 698 687 682 692 685 716 705 738 738 708 720 695 690 687 676 677 683 686 679
792 772 761 764 767 766 771 750 732 723 734 742 740 739 735 735 730 733 728 712 712 720 721 726 732 727 706 706 704 700 703 702 711 727 743 732 716 702 700 703 718 726 723 718 686
789 778 760 763 769 754 755 736 750 732 728 738 735 740 740 734 738 736 732 719 715 722 738 725 734 745 730 700 688 692 714 714 737 752 728 744 726 694 690 702 719 728 728 738 726
788 767 756 760 770 750 733 729 732 737 734 736 736 730 729 740 752 736 728 712 714 724 735 734 746 760 739 708 697 716 705 713 723 723 736 761 720 690 689 699 716 704 722 723 702
791 769 748 750 751 755 753 745 738 726 736 733 734 731 735 741 733 741 734 720 715 719 730 731 743 753 757 737 717 725 710 701 709 725 720 721 709 705 708 704 718 711 698 694 698
788 768 757 762 747 750 745 745 745 741 728 732 738 738 740 748 740 739 730 722 714 728 723 731 747 735 728 720 717 716 711 701 700 698 710 700 702 719 718 713 718 718 717 702 696
790 778 769 767 757 757 758 756 753 743 737 735 740 735 732 739 740 746 735 733 736 727 733 729 745 737 739 725 718 716 701 695 692 686 684 693 721 731 716 714 715 703 711 702 703
785 781 780 775 763 756 750 745 741 735 733 729 730 734 736 733 733 733 730 731 732 737 736 736 738 744 748 726 720 727 705 693 693 693 704 717 723 719 722 708 706 703 703 703 696